Theta_e
327 327 326 326 326 327 327 327 326 326 326 327 327 326 327 326 325 326 327 325 325 327 327 326 327 326 325 326 328 321 320 301 299 298 298 297 312 326 325 327 328 329 325 294 294 295 293 290 292 290 290 292 289 289 289 289 286 283 280 277 279 275 277 279 278 278 280 280 282 283 280 281 282 283 285 285 283 279 283 284 283 285 285 285 283 285 287 286
326 327 326 326 326 326 326 326 327 327 326 326 326 326 325 326 326 325 325 325 325 326 327 327 325 325 325 325 325 325 301 299 297 297 296 308 324 323 327 328 329 327 315 295 294 291 292 291 292 291 287 289 288 288 289 287 287 280 276 278 279 275 281 280 278 279 282 283 281 280 279 282 283 283 284 283 281 279 282 282 281 283 284 284 285 285 288 288
327 326 326 325 325 326 326 326 326 327 326 325 325 325 325 325 325 325 324 324 326 325 326 326 325 324 324 324 324 316 301 297 297 294 297 319 322 326 327 328 328 317 298 298 295 292 293 291 290 291 288 286 288 287 287 286 286 280 280 278 280 278 281 279 280 281 280 282 281 281 281 282 283 283 283 284 280 279 281 280 282 282 284 283 283 285 287 287
325 325 325 325 325 326 326 326 326 326 326 326 325 325 325 325 324 324 324 325 325 326 326 326 325 324 323 323 322 306 299 295 290 292 296 323 322 325 325 325 325 310 293 293 291 291 289 289 288 289 286 287 283 283 287 286 284 283 280 275 281 279 280 282 279 280 279 282 280 280 281 283 283 283 283 280 281 278 279 280 285 283 283 285 283 284 287 286
324 323 323 324 324 325 325 325 326 326 326 326 326 326 326 325 325 324 324 325 326 326 326 326 325 322 323 322 317 300 296 289 291 295 301 324 323 324 322 324 319 293 293 293 293 290 291 289 285 285 286 283 283 280 281 283 283 281 279 280 280 278 280 282 279 280 279 279 279 280 284 283 282 283 280 281 281 280 278 283 283 285 285 284 284 285 285 285
322 322 322 323 323 323 324 324 324 325 326 326 326 325 325 325 324 324 324 325 326 326 326 326 323 320 321 319 299 299 296 281 292 297 316 322 322 320 319 322 314 292 291 289 291 289 290 291 289 282 281 282 282 283 282 282 284 282 279 278 279 278 281 281 281 280 279 280 279 281 282 282 282 281 278 280 283 282 281 282 283 285 286 285 286 285 285 285
322 322 322 322 322 322 323 323 323 324 325 325 325 325 325 324 323 323 324 325 325 325 326 325 322 319 320 315 301 298 293 291 293 299 316 319 318 314 317 308 307 291 290 290 289 290 287 289 288 280 280 281 283 282 283 283 283 283 279 279 281 279 282 280 282 279 278 280 281 280 283 284 280 282 280 280 283 286 285 280 281 281 283 285 285 286 287 287
323 322 322 322 321 322 322 322 322 323 323 324 324 324 324 323 323 322 323 324 324 325 325 323 322 318 318 299 297 291 290 290 297 297 311 314 305 302 304 294 293 293 292 288 289 288 285 288 289 283 282 282 283 282 281 284 283 281 280 280 282 280 280 278 277 277 279 279 280 281 283 283 280 281 280 282 285 285 285 283 282 281 282 283 284 285 286 286
323 322 322 321 321 322 322 322 322 322 322 323 323 323 323 323 322 321 322 323 323 324 323 322 321 319 314 298 293 292 287 294 297 297 301 300 298 297 296 295 292 293 288 287 287 288 290 285 285 283 284 281 283 283 281 280 281 280 281 280 280 281 280 280 280 278 278 281 281 283 281 278 279 279 282 287 287 286 283 283 282 281 282 282 284 286 286 286
323 322 321 321 321 321 322 322 322 322 322 322 323 323 323 322 322 321 321 322 321 321 321 322 319 314 300 294 293 290 292 295 295 298 301 299 297 297 297 293 290 289 290 289 287 289 292 285 288 288 288 283 281 281 279 281 281 279 280 280 281 281 281 281 282 281 280 282 280 283 280 281 280 283 282 279 280 280 282 282 281 281 282 283 284 285 285 286
322 321 320 320 320 321 322 322 322 322 322 322 323 322 322 323 323 322 322 323 322 320 318 317 319 308 296 291 290 287 295 298 297 299 301 299 297 297 295 294 292 291 293 291 289 289 289 290 291 289 288 283 283 283 280 281 282 282 282 281 281 279 282 282 280 281 282 284 281 282 282 279 280 282 283 287 281 281 282 281 281 280 282 283 283 284 285 286
321 320 319 320 320 321 321 322 322 322 322 322 322 322 322 323 323 323 322 321 321 320 320 317 313 302 298 296 292 291 296 297 296 298 300 300 296 294 295 292 291 291 294 290 289 290 290 289 287 284 287 285 284 282 284 281 283 282 282 281 280 276 283 280 282 282 282 283 282 282 282 280 281 280 286 284 280 283 281 281 280 281 282 281 281 283 283 285
321 320 319 319 319 320 320 322 322 322 322 322 322 321 322 323 324 324 323 320 322 320 318 315 306 300 298 292 291 297 293 294 296 299 302 301 295 295 297 296 294 292 292 292 290 290 287 286 293 290 283 284 281 283 284 282 281 281 280 278 278 276 278 281 281 281 283 283 279 281 278 277 276 283 286 281 281 281 282 281 281 282 281 281 280 282 283 284
320 319 319 319 319 319 320 321 322 322 322 321 321 320 321 322 323 323 323 321 323 323 320 315 301 298 293 287 296 298 297 295 297 301 299 301 297 297 299 299 298 295 293 291 289 289 292 290 292 288 284 283 283 287 286 279 279 281 280 278 277 278 280 279 281 281 283 282 280 284 280 278 279 279 279 279 280 282 282 283 282 282 281 281 281 281 283 284
321 320 319 319 318 318 319 320 321 321 321 320 319 319 320 320 321 321 321 319 321 320 318 313 298 291 290 291 295 296 315 296 298 295 297 300 296 294 297 297 298 297 295 294 293 293 290 291 291 285 285 284 288 284 279 277 276 277 281 277 274 279 277 277 281 281 283 284 281 282 277 280 283 284 281 279 280 280 282 283 282 281 282 282 281 282 283 285
320 319 319 318 318 318 318 319 320 320 320 319 319 319 319 319 320 320 319 317 317 317 304 300 298 295 290 289 296 306 293 295 297 296 297 298 297 296 294 293 295 297 296 296 297 296 295 294 287 285 286 285 283 281 278 278 277 275 280 277 281 278 275 279 281 278 282 281 282 281 279 279 281 281 281 278 281 280 281 282 282 281 281 282 282 282 283 284
319 319 318 318 317 318 318 319 318 317 317 317 316 317 317 319 319 320 318 313 305 304 302 298 291 295 289 294 298 292 290 293 296 297 296 296 298 296 296 295 296 294 293 296 296 296 293 290 285 286 282 281 277 276 280 276 275 277 276 280 276 280 278 278 278 281 280 282 282 280 280 280 281 282 282 280 280 279 280 282 283 282 282 282 282 282 282 283
318 318 318 317 317 317 317 318 318 317 317 318 317 319 311 315 316 315 311 307 301 301 299 298 292 292 289 296 291 292 293 292 297 297 294 296 296 296 294 295 292 294 291 293 294 293 289 286 285 282 279 279 279 275 279 278 279 279 279 279 279 276 276 277 279 282 281 279 281 279 278 281 284 285 284 284 280 280 282 283 284 283 281 282 282 282 282 283
317 317 316 316 316 316 317 318 318 318 318 318 318 319 317 316 304 302 301 300 299 293 292 292 292 288 282 291 291 293 296 296 296 295 296 297 296 294 293 292 291 292 290 287 290 286 286 286 285 283 283 277 279 279 280 283 277 279 276 275 276 280 278 278 277 277 280 280 279 277 280 282 283 284 285 281 278 279 282 281 281 281 281 281 281 282 282 283
316 316 315 315 316 316 317 318 318 317 318 312 298 301 300 298 294 293 296 299 292 292 290 292 291 291 293 292 294 297 297 296 296 293 295 294 298 295 292 291 289 291 285 284 285 283 282 278 277 280 280 279 278 278 279 278 278 277 276 275 277 277 276 276 277 280 279 281 278 279 278 279 281 283 284 284 280 278 280 281 282 282 283 283 283 283 283 283
316 315 315 316 316 317 317 318 318 317 315 300 300 298 295 289 293 289 288 294 291 291 293 293 291 291 293 293 293 296 293 294 292 293 295 297 296 293 291 290 286 288 282 281 284 285 281 280 278 279 279 279 280 277 277 279 278 278 278 280 280 277 279 282 282 280 279 281 277 276 276 280 282 284 285 281 278 281 282 281 282 283 283 283 283 283 284 285
315 315 315 314 315 316 317 317 317 316 313 299 300 297 294 292 297 296 292 287 291 292 290 291 291 292 293 293 295 293 288 289 292 294 296 299 292 292 289 286 282 286 282 279 281 278 278 279 279 279 279 278 277 277 279 280 279 278 282 278 282 278 277 278 280 279 280 282 279 276 279 283 285 285 285 281 282 281 281 283 283 284 283 283 283 283 284 283
315 314 313 314 314 316 316 317 315 312 300 300 297 295 297 299 299 295 294 290 287 291 292 290 291 289 292 293 294 296 288 285 286 291 295 296 290 289 286 283 281 281 280 280 281 278 280 280 279 279 279 280 279 278 278 278 278 279 280 283 280 278 280 279 278 280 281 280 279 277 280 284 285 282 282 283 282 280 279 280 282 283 284 284 284 284 284 283
314 312 312 313 314 314 315 313 310 302 295 295 295 298 297 293 294 295 290 285 288 292 293 292 291 290 292 293 295 291 288 289 288 291 295 292 289 287 284 280 278 279 279 277 276 278 279 279 278 277 277 280 279 278 278 278 281 279 279 279 279 280 281 280 279 279 279 279 279 279 280 280 277 281 285 284 279 281 280 280 281 281 282 283 283 282 283 284
312 312 313 314 313 316 312 311 301 297 296 295 296 298 295 294 293 291 289 284 284 289 293 291 290 291 296 296 292 293 287 288 291 291 290 293 290 286 285 283 280 281 280 279 279 279 279 279 279 281 279 278 281 282 279 280 281 276 277 280 281 279 281 278 278 280 276 277 280 280 277 274 276 277 279 283 280 283 280 281 284 284 282 281 283 284 284 284
311 313 314 315 315 315 315 301 297 296 296 296 298 296 293 292 293 290 286 278 277 283 289 289 297 292 296 292 292 285 289 287 291 291 296 294 295 288 284 283 282 281 277 278 279 279 279 279 280 281 277 277 277 280 280 280 278 280 282 279 279 279 279 279 278 280 277 279 280 278 279 275 278 278 281 279 278 283 283 281 283 283 283 281 284 285 285 285
312 313 313 314 315 312 301 294 294 296 295 297 295 293 293 296 295 297 291 272 276 285 287 291 292 290 297 291 289 287 282 283 290 291 293 295 294 295 287 282 283 281 279 279 280 280 282 280 280 278 280 279 281 280 280 277 278 280 280 277 279 281 280 279 278 279 277 276 280 278 275 276 278 281 278 278 279 282 283 285 284 284 283 283 283 283 284 284
313 314 314 314 314 310 295 296 296 295 294 295 294 292 294 294 294 293 278 265 270 289 286 289 294 297 295 291 288 286 287 287 286 288 293 292 293 289 287 283 282 282 280 280 275 279 279 281 279 280 278 280 282 280 280 279 281 281 279 279 281 280 279 277 279 279 278 278 278 276 279 278 275 279 278 279 284 283 285 286 286 285 284 283 282 283 283 283
312 313 314 314 312 309 299 299 296 295 296 293 293 292 294 291 292 287 273 269 281 284 296 289 299 293 287 290 286 283 287 287 285 289 288 291 291 289 284 282 280 280 279 281 278 280 280 281 282 281 281 280 279 279 277 280 281 281 280 279 279 278 277 279 278 281 275 277 274 278 278 276 277 277 278 278 282 282 284 286 287 286 285 284 284 284 283 281
312 312 314 314 308 307 301 296 298 298 292 294 293 292 292 293 287 280 272 268 287 280 288 289 292 286 284 282 283 284 287 284 284 286 286 288 289 288 285 284 281 280 282 280 279 280 281 284 284 282 280 281 278 279 278 279 281 279 281 283 279 277 277 276 275 276 274 272 273 276 275 278 276 279 280 284 285 285 286 283 283 282 283 283 282 283 285 285
314 314 313 312 303 301 298 298 296 295 292 293 294 291 291 285 271 266 266 274 286 286 287 285 286 284 283 283 283 282 283 281 285 284 288 284 286 281 281 284 282 277 274 275 279 279 281 280 280 280 283 280 280 281 280 279 279 281 280 282 278 279 276 277 269 272 272 267 271 275 277 276 275 276 277 283 282 280 285 286 288 287 287 287 285 284 284 284
313 313 313 304 302 296 299 297 298 297 295 294 293 290 289 282 278 272 272 285 279 282 281 280 282 280 280 282 280 280 281 281 281 282 282 279 277 280 278 277 280 274 270 267 279 279 281 280 279 280 283 281 279 280 280 280 278 280 278 276 276 273 270 273 265 275 270 271 279 276 276 276 277 284 283 281 283 285 283 286 288 288 288 287 285 285 285 285
311 310 310 304 301 296 296 295 297 297 294 293 289 286 277 273 270 269 274 274 279 280 282 283 282 284 282 281 282 279 281 282 281 281 281 281 281 279 279 281 279 281 274 275 276 273 275 277 279 282 281 283 280 278 276 280 278 279 280 274 273 269 262 266 258 262 268 274 277 276 275 278 279 283 285 288 290 287 286 285 285 284 286 287 287 285 284 285
311 307 301 300 299 297 297 296 295 295 294 293 286 286 280 272 272 281 273 273 280 280 283 282 281 281 279 282 280 281 281 280 282 283 280 279 277 279 280 280 281 280 271 273 279 274 271 273 278 280 280 280 279 279 278 282 277 281 277 280 275 267 273 268 264 272 273 274 276 274 274 274 277 283 285 283 283 281 280 281 281 282 282 281 281 283 283 283
307 302 298 293 294 295 295 292 294 294 290 292 284 278 275 274 267 275 273 273 276 280 284 281 280 280 280 277 280 279 281 280 280 280 278 279 275 275 277 281 282 277 276 277 274 272 277 275 276 279 280 279 280 281 279 276 278 278 278 279 275 274 274 276 263 268 266 269 271 272 276 277 282 282 286 282 282 284 281 282 281 283 282 281 283 285 286 287
305 296 295 292 295 295 292 294 291 292 292 289 283 278 276 273 280 277 280 282 282 284 282 280 278 277 274 275 278 281 285 281 282 278 276 280 276 279 277 276 281 279 279 276 274 275 273 276 280 277 278 280 280 280 281 279 276 279 279 276 279 277 274 268 269 268 269 267 273 268 278 280 282 284 281 279 282 285 283 283 282 284 282 281 284 285 286 287
294 294 296 292 294 294 292 290 293 291 292 287 281 275 270 273 279 279 291 285 284 284 281 279 279 281 274 275 276 276 282 282 279 278 275 275 279 278 279 280 279 280 279 279 277 276 276 275 278 278 279 281 279 279 280 279 280 279 276 276 279 277 275 276 273 266 262 267 273 272 275 278 277 283 282 282 282 285 283 283 282 282 281 282 285 286 287 288
293 293 295 292 295 293 291 293 291 289 288 287 279 289 274 282 282 284 283 282 284 280 279 277 279 281 275 275 277 276 280 280 277 277 272 276 276 280 279 281 282 282 281 282 280 280 280 274 275 278 278 279 279 280 279 281 280 281 279 281 281 272 276 272 270 268 268 268 268 273 272 274 277 282 282 283 281 286 286 284 283 285 285 285 286 286 286 286
287 290 293 294 295 292 295 291 290 287 284 282 273 283 280 280 283 283 284 284 283 282 283 278 276 279 276 276 276 277 278 278 275 272 275 275 277 282 283 282 282 278 279 280 281 278 277 273 272 277 278 279 278 277 273 277 280 277 279 279 278 277 270 271 273 269 272 267 268 274 269 281 279 278 279 286 285 285 285 283 285 287 288 288 287 287 287 287
295 289 288 298 294 292 294 294 287 285 282 279 273 276 281 281 284 283 281 284 286 284 282 280 276 276 277 275 277 279 278 275 276 276 277 278 280 284 284 283 281 282 279 280 280 278 276 276 269 275 275 277 276 276 276 277 276 277 278 273 274 275 277 278 272 274 275 263 264 263 273 277 281 280 281 286 287 285 284 286 287 288 288 287 287 287 287 287
286 284 285 292 295 293 294 290 286 283 279 274 274 277 279 283 284 284 282 281 283 283 284 280 280 279 276 277 279 276 279 275 275 278 276 278 279 281 281 282 282 282 281 282 283 279 273 274 272 267 274 276 275 275 277 276 275 276 278 276 278 275 275 272 275 271 267 272 271 263 275 279 287 283 286 287 286 283 282 284 286 287 287 287 288 287 287 288
291 283 285 294 294 294 294 287 275 273 273 278 279 278 284 291 283 284 284 282 283 284 283 281 280 277 275 277 277 278 277 277 276 277 277 278 280 282 281 273 279 280 281 278 279 278 279 270 272 272 272 274 276 278 276 275 273 275 278 278 276 274 274 268 269 270 270 272 269 266 267 281 286 281 281 283 283 283 282 281 284 286 286 287 287 287 287 288
286 283 292 293 293 295 289 273 280 282 279 277 281 283 281 285 283 283 285 284 284 283 281 284 282 283 280 281 277 274 276 279 277 279 277 275 276 278 277 274 277 281 279 279 282 281 287 276 272 275 270 272 275 272 270 273 276 274 272 268 274 278 277 278 272 271 271 270 272 271 268 282 284 281 280 280 280 281 281 281 284 286 286 286 286 286 286 286
281 287 293 294 292 292 289 283 280 278 271 277 280 282 282 284 282 284 284 283 281 284 285 282 285 285 284 278 278 280 279 281 278 280 280 275 282 276 274 276 276 282 282 281 280 283 278 275 276 269 266 267 267 272 274 274 272 273 273 274 275 275 272 268 269 269 275 272 275 274 272 280 282 279 280 279 280 281 283 283 282 284 286 286 286 286 285 286
286 285 287 290 292 291 289 282 280 274 278 279 278 281 283 284 283 283 283 284 282 281 283 284 284 283 282 281 278 278 276 280 278 279 279 277 280 279 276 274 275 281 281 280 285 282 278 276 273 271 269 268 266 266 271 272 275 276 275 275 275 278 272 276 276 271 272 270 273 270 274 285 285 282 287 285 282 286 288 285 281 282 285 287 286 285 285 285
285 283 280 286 285 286 284 280 281 280 277 275 279 279 282 282 284 281 283 284 282 282 282 283 281 280 280 282 282 280 280 277 279 277 279 277 277 278 278 273 275 281 281 282 282 277 274 273 274 273 275 276 279 273 273 277 276 276 276 273 276 276 278 275 272 270 276 269 274 279 282 285 286 288 288 289 286 287 289 290 289 288 286 285 284 285 285 286
285 282 278 282 283 283 279 280 280 283 284 282 281 278 280 280 281 284 283 285 283 283 283 284 283 284 283 282 278 280 279 280 278 278 278 275 277 277 274 277 275 281 288 286 284 274 270 276 276 274 275 279 277 274 276 280 279 276 277 277 275 277 277 278 277 278 277 274 277 281 282 281 285 288 289 289 288 284 285 287 287 286 287 288 287 285 287 285
284 283 284 286 285 282 284 286 283 279 280 283 282 283 282 280 281 281 284 283 282 281 285 284 282 283 283 284 281 280 279 279 277 279 279 277 278 279 278 279 280 282 282 278 279 279 272 275 274 275 275 275 275 276 276 277 277 277 275 277 276 277 276 278 279 281 278 280 281 284 280 281 285 288 289 290 291 289 289 289 288 288 287 286 285 286 287 287
283 280 281 283 284 276 287 282 284 283 283 283 282 282 280 282 283 282 281 282 283 284 283 281 282 284 281 281 283 280 280 278 279 278 276 276 276 276 276 278 278 276 276 277 278 270 279 272 273 275 274 276 275 273 274 277 275 277 278 278 278 276 278 280 281 281 281 282 285 285 284 283 286 288 290 291 292 289 290 289 287 286 289 289 288 288 288 288
283 286 282 280 281 277 279 283 286 285 284 283 285 282 283 282 283 282 281 282 281 281 282 283 281 280 281 280 280 281 282 283 284 279 279 279 276 278 277 279 278 278 276 278 277 278 280 274 280 271 273 272 270 273 272 273 274 274 278 278 277 277 278 279 279 279 278 280 282 283 282 282 288 290 290 292 291 290 287 286 288 288 288 288 288 288 288 289
286 284 289 289 285 279 279 282 284 286 282 281 283 281 282 282 285 285 284 283 283 283 282 287 283 280 280 280 280 282 281 283 284 288 283 283 281 281 283 280 281 277 277 275 276 275 278 273 271 270 275 271 271 268 272 265 271 271 275 278 277 275 273 276 277 279 279 281 282 279 279 282 288 290 286 286 284 284 286 287 287 288 286 286 286 288 288 288
286 286 287 290 283 284 283 277 277 284 284 285 284 281 284 285 282 284 285 283 281 282 284 286 282 283 279 280 282 285 284 282 286 284 283 281 282 280 280 281 282 281 279 278 273 276 275 272 274 272 274 267 271 267 269 268 273 279 280 281 280 280 281 279 280 279 282 284 281 279 282 288 290 287 286 289 288 287 286 287 286 287 286 286 287 288 289 289
Wind_Speed
7 7 7 7 6 5 5 4 3 2 3 4 4 4 5 5 6 6 6 6 6 6 6 5 5 6 7 6 6 5 7 14 12 12 18 4 5 11 14 14 12 10 5 2 3 3 5 6 6 8 2 7 5 6 1 6 2 3 6 5 7 3 3 6 4 7 1 4 3 1 0 3 1 0 0 0 4 4 1 1 3 2 3 3 3 2 2 2
6 7 6 7 6 6 5 5 4 4 4 4 4 5 5 6 6 6 7 7 6 5 5 4 5 5 7 7 5 3 6 8 11 15 7 4 14 17 15 13 11 8 1 4 4 3 6 3 4 6 5 6 5 3 1 2 5 8 4 6 7 4 1 6 2 5 4 2 4 2 0 1 0 1 1 1 3 5 2 2 2 4 6 4 3 3 1 3
6 6 6 6 6 6 6 6 5 5 6 5 5 6 6 5 5 6 7 7 6 5 5 4 5 6 7 7 2 5 3 7 15 12 6 13 21 18 18 15 12 9 2 1 0 4 2 3 1 4 8 7 9 3 5 4 3 1 6 6 0 5 1 3 3 4 3 6 3 2 1 0 1 0 1 1 1 2 3 3 2 3 7 7 4 2 0 3
6 6 6 6 6 6 6 5 5 6 6 6 6 6 6 6 7 8 7 7 7 6 5 6 6 7 6 2 3 1 3 7 7 5 5 17 21 19 17 15 11 3 4 10 3 5 4 6 10 9 3 11 5 4 9 7 4 1 8 3 3 4 3 0 4 2 3 2 4 2 1 1 1 0 1 2 3 4 6 7 7 8 9 9 4 2 1 3
5 6 6 6 6 6 5 5 5 6 6 6 7 6 6 7 7 8 7 7 7 6 5 5 5 6 5 5 4 2 3 8 1 4 7 17 19 19 16 12 9 4 5 7 5 6 8 8 4 8 8 3 7 5 4 5 3 5 3 1 1 2 3 1 1 3 3 2 6 1 2 0 1 0 2 3 3 8 3 4 9 9 8 5 5 5 2 4
5 6 6 6 6 5 6 6 6 6 7 7 7 7 7 7 7 7 8 8 8 7 6 5 4 5 5 4 3 3 2 2 3 6 15 18 19 18 15 10 4 4 2 6 2 5 3 9 10 7 5 8 8 8 6 1 1 8 2 2 1 2 4 0 1 3 4 1 4 1 1 1 1 1 1 4 8 6 6 2 5 8 7 5 2 4 5 6
4 5 6 6 6 6 6 6 6 7 7 7 7 7 7 8 8 8 9 9 8 6 5 3 1 4 3 7 4 16 11 1 2 9 15 18 18 15 11 7 5 3 3 3 6 4 4 8 11 3 5 5 3 7 2 4 5 9 4 1 5 3 3 1 1 1 0 8 1 1 1 1 3 2 1 3 8 12 8 4 3 3 3 3 5 7 10 11
4 5 5 6 6 6 6 6 6 6 7 7 7 7 7 8 8 9 10 10 7 5 4 5 4 3 1 2 4 6 8 4 10 6 15 18 16 12 8 4 7 2 11 6 2 4 4 7 13 5 10 6 1 4 3 7 10 7 5 0 0 2 2 1 1 3 2 3 0 3 1 1 2 1 3 9 10 8 11 4 4 2 2 3 5 7 8 7
4 5 5 5 6 6 6 6 6 6 7 7 7 7 7 7 8 9 10 10 7 5 4 3 4 6 7 7 7 10 4 3 5 9 11 15 14 10 8 2 8 6 4 4 4 4 4 1 3 4 5 4 1 5 5 2 5 3 1 1 2 1 1 0 4 4 3 1 1 2 3 3 2 4 4 16 14 9 4 2 3 2 2 5 8 9 8 9
4 5 5 5 6 6 6 6 6 6 7 7 7 7 7 8 8 8 9 8 8 8 7 3 3 6 9 5 5 11 2 5 6 9 10 11 11 10 13 5 5 5 4 5 3 2 1 7 4 7 19 8 3 4 2 5 4 4 5 4 5 1 0 4 3 1 1 2 1 1 3 1 3 4 8 3 5 3 3 5 1 5 6 7 7 7 7 8
4 5 5 5 5 6 6 6 6 7 7 7 7 7 7 7 7 7 7 7 7 8 11 13 4 8 5 3 10 4 1 7 3 7 11 10 12 14 9 9 4 5 12 7 7 0 4 13 11 8 6 3 5 7 6 3 6 6 8 5 6 2 2 0 3 3 1 1 1 2 2 1 2 1 9 12 2 1 4 6 5 5 7 7 7 6 5 6
5 5 5 5 5 6 5 6 6 6 7 7 7 7 7 7 7 6 5 7 8 7 8 7 9 7 8 14 10 3 2 2 4 5 5 12 8 6 7 5 4 2 2 7 6 5 5 8 4 2 5 2 6 3 5 1 3 2 0 3 2 3 1 4 1 1 1 1 0 1 2 4 2 5 15 6 4 0 4 6 6 6 8 6 5 5 5 8
5 4 4 4 5 5 5 5 6 6 5 6 6 7 7 6 6 6 5 3 7 8 8 5 5 7 8 10 2 5 3 3 4 8 14 11 3 1 5 6 10 9 3 10 3 0 1 2 11 18 2 7 5 1 4 6 1 1 5 3 2 3 1 3 1 1 2 1 3 3 4 6 5 14 10 2 1 1 1 6 7 7 6 6 5 5 6 6
5 3 3 3 4 5 5 4 4 5 5 5 6 6 7 6 6 5 4 2 3 4 4 9 6 8 9 1 4 2 4 1 5 14 12 10 8 5 7 9 8 7 5 12 6 3 7 5 20 14 4 6 5 1 8 2 4 3 1 5 1 1 0 3 1 0 3 1 3 1 2 9 8 8 3 5 3 4 6 7 7 7 6 6 5 5 7 9
5 2 3 3 4 5 6 5 5 5 5 5 6 6 6 7 6 8 7 5 9 6 3 1 6 4 8 0 5 7 1 1 9 4 4 10 6 3 7 8 7 6 4 6 4 2 1 1 9 9 4 3 5 4 3 3 3 3 1 2 3 2 2 4 2 1 1 1 5 2 1 9 9 12 6 5 1 4 7 8 8 7 7 7 5 6 7 10
4 3 3 3 5 7 6 6 5 4 6 8 8 6 5 5 5 7 8 4 6 8 2 6 8 10 10 3 0 2 6 5 6 3 1 4 5 2 3 4 3 4 5 4 2 1 5 10 14 2 4 2 9 6 5 4 3 4 2 1 0 1 4 4 1 2 3 2 3 1 6 7 5 2 1 3 1 1 6 9 8 8 8 7 6 6 6 8
3 4 2 4 6 7 6 5 5 4 6 6 6 9 12 8 3 1 8 9 8 3 5 1 1 1 5 3 1 3 3 2 5 3 7 2 4 1 1 3 2 5 4 2 8 6 9 10 3 2 6 7 2 2 3 5 2 2 2 1 2 0 1 1 3 1 3 1 1 1 2 9 8 10 8 5 2 3 7 12 10 9 7 6 5 6 7 7
3 4 1 4 7 6 6 5 5 5 5 6 3 3 5 11 14 12 12 9 3 6 5 4 2 6 1 7 1 2 0 5 8 7 3 1 4 6 6 4 2 2 4 2 6 8 5 3 3 3 3 5 8 5 4 1 1 1 0 1 1 0 1 3 1 0 1 3 2 0 4 16 17 13 13 9 2 6 11 13 10 7 6 6 6 6 7 7
2 4 1 6 7 6 6 5 6 6 7 7 5 4 3 2 2 8 9 7 4 3 1 6 6 1 3 1 5 6 3 2 3 5 8 9 4 2 3 3 5 3 1 5 4 6 6 5 4 6 2 6 4 1 2 1 3 2 5 2 2 0 1 1 2 2 3 1 3 5 8 11 12 12 13 5 0 6 12 7 7 8 6 6 7 7 7 8
1 2 1 6 6 6 5 6 7 6 7 5 3 1 3 1 4 3 8 11 8 2 0 1 0 0 1 6 4 5 2 3 1 6 3 1 4 5 4 3 3 9 6 2 6 3 0 7 5 1 1 0 1 0 2 1 4 4 3 4 1 0 5 2 3 1 0 1 7 7 7 9 14 15 14 7 1 4 8 11 10 9 8 8 8 8 9 8
0 1 2 6 6 5 6 5 5 5 5 3 2 3 1 4 3 1 1 2 1 2 1 0 1 1 1 1 2 6 1 1 3 5 5 2 0 1 2 4 6 7 4 1 0 3 3 7 3 0 1 0 1 1 3 4 4 2 5 1 0 2 2 1 1 1 1 0 3 1 4 11 14 14 13 3 0 8 10 10 11 11 9 8 7 10 10 11
0 1 3 6 5 4 4 5 4 3 6 4 4 2 1 2 0 1 7 3 1 0 1 0 0 1 2 3 0 3 3 1 3 11 4 7 5 1 4 7 4 3 4 3 1 7 9 4 1 2 0 2 3 1 1 1 3 3 1 1 2 2 6 5 1 2 1 1 8 2 7 13 14 12 10 7 9 6 5 8 7 7 8 8 8 9 10 7
1 1 3 4 4 3 4 3 5 5 2 2 1 2 1 0 0 1 5 7 3 1 3 3 3 4 3 2 0 1 4 5 1 6 8 7 3 5 0 3 5 1 3 7 3 2 3 0 0 0 1 1 3 2 3 4 5 3 2 1 3 2 3 3 1 2 1 1 3 3 8 14 12 7 12 10 8 5 5 6 8 6 8 9 9 7 6 7
1 0 4 4 3 3 3 3 3 6 4 3 4 1 1 1 2 1 4 2 2 1 1 0 1 0 2 2 1 4 3 0 1 8 6 4 2 1 5 3 4 4 4 3 4 4 1 0 1 2 2 1 1 2 2 2 1 1 1 1 1 1 1 2 3 4 2 0 0 5 7 9 4 5 3 0 1 3 5 3 6 8 8 6 5 5 7 10
1 0 3 3 4 3 1 4 7 0 1 1 1 1 1 1 1 2 5 1 3 1 2 0 3 0 1 0 3 0 0 1 1 2 3 3 1 2 1 1 1 1 1 1 6 9 3 0 2 0 1 3 2 1 2 1 3 4 1 0 0 1 2 3 4 6 7 2 3 4 6 3 3 5 9 9 6 4 2 2 8 8 5 5 7 11 7 8
0 0 2 4 3 5 3 4 1 2 2 1 1 1 2 3 0 1 7 4 0 2 2 1 1 0 1 1 5 1 1 2 2 1 1 0 2 2 1 3 1 2 1 2 4 2 2 1 1 1 3 4 4 1 1 0 2 1 0 1 0 2 1 2 6 3 2 1 2 1 1 8 6 5 5 3 3 8 6 4 8 6 6 5 8 8 7 8
1 2 2 3 4 3 4 2 0 1 2 0 1 1 1 1 0 0 2 4 2 1 1 1 1 0 2 2 1 1 1 1 2 1 1 2 1 1 1 2 2 3 2 2 1 1 0 2 2 3 3 4 2 1 1 2 2 2 0 3 2 2 3 2 2 2 3 2 2 3 2 2 9 11 4 4 3 7 7 8 8 7 6 7 7 7 7 8
2 2 1 4 3 2 2 5 2 1 1 0 0 3 2 1 1 3 6 3 2 2 1 1 0 2 1 0 5 3 1 1 1 0 1 2 0 3 5 2 2 4 1 0 1 1 1 1 1 2 4 1 0 1 0 1 0 1 1 2 1 1 2 2 1 0 1 2 7 3 3 1 5 9 4 2 2 6 10 9 8 8 7 7 7 8 8 8
3 2 3 4 9 9 5 4 4 2 0 0 1 2 3 4 6 6 4 2 1 2 1 2 1 1 4 1 5 1 0 2 1 1 4 1 4 1 4 1 5 7 2 1 2 1 2 1 1 2 1 0 1 1 0 1 2 1 1 3 3 3 3 1 1 0 2 1 6 0 3 1 9 7 6 3 1 7 10 11 10 9 8 7 7 7 7 5
2 1 3 3 4 2 2 2 3 0 1 0 1 2 3 2 3 1 2 4 1 1 0 2 1 2 2 2 2 8 2 3 1 6 4 1 6 7 3 4 4 3 4 7 10 3 1 3 4 3 1 0 2 0 0 1 1 1 1 0 1 4 2 2 5 1 2 1 5 2 2 0 5 7 7 4 7 8 7 5 5 5 6 7 7 7 5 5
4 2 0 2 0 2 3 1 0 0 0 0 0 3 3 9 4 4 2 4 2 0 1 3 1 5 1 3 2 3 3 2 5 3 0 4 3 6 2 1 2 5 4 6 4 2 0 0 1 1 2 2 2 1 0 0 1 0 0 0 4 1 5 1 3 4 1 4 2 2 1 0 2 7 6 9 4 4 6 8 9 8 9 9 7 7 7 6
8 9 7 5 0 1 1 3 2 1 1 1 2 5 4 2 4 3 3 3 1 3 2 2 1 2 2 1 6 4 1 3 2 4 2 1 2 2 3 3 1 1 3 1 0 0 1 1 1 3 1 4 1 2 1 1 2 1 1 5 4 5 6 3 4 2 2 3 1 2 0 2 9 13 9 7 8 8 8 8 9 9 9 8 6 8 7 6
13 12 13 7 2 3 1 0 2 2 1 2 5 4 3 6 3 3 0 1 1 1 1 2 1 1 0 2 1 2 2 2 3 2 2 0 2 2 1 1 1 1 2 2 1 4 1 1 3 2 2 2 1 1 1 0 1 1 1 2 2 2 4 1 4 2 5 4 3 0 1 3 6 10 11 16 15 9 7 9 7 5 7 7 7 6 6 6
5 4 8 3 6 3 1 1 2 1 2 3 3 5 9 3 4 4 2 2 0 1 3 1 0 2 4 2 0 1 1 1 1 1 1 0 2 0 1 1 2 2 4 1 1 1 2 4 0 0 1 1 0 1 2 0 2 0 1 1 3 5 0 2 2 3 4 5 4 4 1 6 2 3 0 9 6 5 5 5 5 6 6 5 4 3 4 5
14 12 8 1 3 3 2 0 1 2 5 6 9 5 5 7 1 3 3 2 3 1 1 1 2 2 1 2 2 1 2 0 1 0 3 1 2 1 2 2 1 2 2 2 2 2 1 5 1 1 1 1 1 1 0 1 3 1 1 3 4 1 4 2 3 2 3 4 6 1 6 4 6 5 9 4 7 9 5 7 4 8 5 4 4 6 8 9
7 1 3 2 2 1 1 1 0 2 7 7 5 1 6 6 0 3 1 4 2 4 3 3 4 2 1 2 2 2 4 1 1 1 1 0 2 2 1 1 4 5 4 3 4 2 2 2 1 6 2 0 0 0 1 0 1 1 2 1 1 1 4 4 1 0 1 3 8 1 8 7 9 8 5 7 4 7 2 4 3 7 5 2 6 7 8 9
4 0 3 2 1 1 1 0 1 5 9 8 5 6 3 2 3 4 1 3 3 9 3 7 3 4 3 4 1 1 1 1 1 2 2 1 2 4 1 2 4 1 2 3 1 3 2 3 1 1 0 0 1 1 1 1 1 1 1 3 1 2 1 2 2 2 4 1 8 2 6 8 6 10 4 9 5 8 5 6 4 5 3 6 9 8 9 10
3 2 2 1 1 3 1 0 2 6 7 5 5 5 1 1 0 2 1 4 2 2 5 3 1 3 3 3 2 3 1 3 3 1 1 1 1 3 1 3 1 1 1 2 1 1 2 3 1 1 0 4 1 0 1 1 0 1 2 0 0 0 0 2 2 3 2 4 6 7 4 7 5 9 6 7 4 7 7 3 3 6 7 10 9 10 8 6
3 4 2 0 1 2 1 1 5 5 3 3 4 2 2 1 0 1 2 2 1 4 4 4 3 0 3 4 1 1 3 4 1 3 2 2 1 3 2 3 0 1 2 2 1 1 2 1 3 1 2 1 1 1 3 1 2 1 0 1 1 1 1 2 2 2 3 5 4 9 5 9 6 7 6 8 8 6 7 5 7 10 10 9 9 9 8 8
4 2 1 0 2 1 1 1 5 5 4 6 3 3 0 1 1 1 1 0 1 2 2 4 1 3 1 2 4 4 1 1 5 3 1 0 1 1 1 2 4 1 2 2 1 1 2 1 2 0 3 1 2 3 7 8 5 1 1 1 1 0 2 2 1 2 2 3 2 1 9 9 8 7 5 10 9 6 5 7 7 8 8 7 7 8 7 7
2 3 1 1 4 2 2 6 4 4 3 1 1 2 0 1 1 0 3 3 1 2 1 3 7 3 6 3 3 2 2 2 1 3 3 1 4 1 1 1 3 4 1 2 1 0 3 1 3 1 1 3 5 1 1 2 2 5 8 7 8 6 2 1 8 2 1 1 4 3 10 10 12 6 10 9 7 4 5 5 8 8 9 9 9 9 9 9
6 3 2 1 4 1 6 4 1 1 3 5 5 3 1 1 2 0 1 1 2 0 2 4 1 3 2 2 3 4 4 3 2 0 3 4 1 1 0 3 2 2 4 4 3 2 2 3 3 2 6 2 3 0 1 0 1 1 2 1 5 3 5 4 0 3 1 1 3 2 1 15 3 4 4 7 6 6 6 3 9 8 9 8 9 8 8 10
4 4 2 2 4 3 7 3 1 1 1 1 3 1 1 0 2 2 3 1 0 1 2 1 3 3 4 2 1 2 4 2 7 6 3 3 2 0 1 2 2 3 3 1 1 0 4 1 0 5 4 3 2 1 0 1 0 1 0 1 2 3 5 6 3 4 4 1 1 1 1 14 2 1 5 4 5 6 5 5 9 10 10 9 9 9 9 9
3 3 1 0 1 1 6 7 6 4 1 2 2 0 1 1 2 2 1 1 2 1 2 1 1 1 1 1 3 3 6 2 4 3 2 1 1 2 1 2 2 2 0 3 5 3 2 3 3 2 4 4 1 2 1 0 1 2 2 3 2 2 4 2 4 0 1 8 9 7 8 13 3 2 3 3 5 6 8 7 8 10 10 8 8 8 7 8
5 2 2 2 7 4 8 5 7 5 2 3 1 3 0 1 1 1 2 2 0 1 1 1 0 2 2 1 2 1 2 0 0 1 1 3 1 0 3 2 4 0 1 3 2 2 1 2 5 2 3 2 3 3 1 1 5 3 0 0 3 5 5 3 2 1 4 3 6 3 8 18 8 5 10 8 6 10 11 8 5 8 9 10 8 8 8 7
3 5 2 2 6 6 4 1 4 7 6 3 1 1 1 1 0 2 2 1 1 1 0 1 0 2 2 1 1 1 1 1 1 1 2 1 1 1 2 1 2 0 1 2 1 1 1 1 2 6 6 9 9 3 2 3 3 2 2 4 5 3 1 2 5 4 9 3 7 12 13 18 21 20 15 16 7 10 15 13 9 8 7 9 9 9 8 8
1 4 5 4 3 3 1 1 2 4 6 6 3 3 4 3 1 0 2 1 1 1 1 0 1 3 1 2 2 1 0 0 1 1 2 1 0 1 3 1 3 1 2 1 1 2 2 1 5 4 7 7 2 5 3 3 2 3 2 4 5 7 7 8 9 9 6 7 10 12 12 9 23 22 19 19 11 7 9 10 10 7 8 9 8 6 8 8
4 4 4 5 8 7 5 8 8 3 1 6 3 4 6 5 2 3 1 0 0 1 3 0 1 3 7 8 5 3 2 1 1 3 1 0 2 1 2 1 1 3 2 0 1 1 3 3 2 3 5 4 4 4 1 1 4 3 5 4 7 10 7 11 12 10 8 8 16 14 6 10 17 17 19 18 18 11 11 11 8 9 9 8 8 10 11 11
2 1 1 1 3 2 7 4 8 7 7 6 1 3 5 6 8 4 4 2 0 1 4 3 5 9 7 3 4 3 4 3 4 2 3 3 3 2 1 1 1 3 0 0 0 1 2 4 1 1 3 5 3 2 1 5 2 2 6 9 7 10 15 17 18 12 13 16 17 17 14 17 18 22 23 23 18 9 12 11 10 10 14 13 11 12 13 13
4 4 1 5 5 5 4 6 8 8 6 3 5 6 7 8 8 2 1 4 3 3 1 2 4 3 6 6 4 5 9 4 1 3 4 5 0 2 3 5 4 2 1 2 1 1 2 4 4 0 1 4 3 2 2 0 1 5 10 8 6 9 12 15 7 6 6 15 19 21 17 21 23 22 21 21 15 11 9 11 13 12 10 11 12 13 13 13
2 2 7 8 4 0 2 4 7 9 5 1 6 4 3 6 9 8 4 4 4 7 7 12 7 4 1 4 4 6 5 5 4 1 11 9 3 8 5 3 7 6 1 1 0 0 0 2 2 1 2 5 3 4 3 3 1 6 12 13 9 9 9 8 11 10 9 16 16 4 8 16 22 19 6 7 6 6 10 12 11 9 8 8 11 13 12 13
3 1 1 6 4 2 6 1 3 7 7 9 7 5 5 11 4 7 3 1 1 2 9 9 8 8 1 2 10 13 7 6 1 1 8 2 4 5 3 4 8 10 8 4 0 4 4 4 2 1 1 5 4 0 5 7 4 9 13 16 20 15 12 1 4 2 16 15 8 9 16 18 16 6 9 15 9 9 10 11 10 10 9 9 12 13 13 13
Wind_Direction
16 23 49 55 54 56 53 53 55 31 343 331 351 354 341 346 348 346 355 357 355 347 338 352 350 325 318 303 300 352 342 77 50 38 54 138 305 310 309 311 313 315 348 63 26 51 28 26 12 343 39 55 324 52 318 58 55 53 52 111 59 162 122 188 170 187 152 127 230 198 247 118 155 327 276 210 6 40 346 9 312 313 268 206 240 275 256 283
21 19 39 47 44 42 48 41 21 355 352 355 359 344 345 352 351 346 346 344 344 338 332 328 319 309 298 290 298 7 42 69 55 47 75 337 331 336 332 336 341 350 54 48 91 89 75 33 34 40 41 53 322 34 22 6 52 71 113 64 139 196 278 135 200 183 128 196 181 228 264 159 185 148 299 60 336 16 357 308 346 316 299 300 278 330 47 125
22 22 31 44 41 41 39 23 4 360 358 353 353 351 348 354 350 344 336 336 336 329 328 317 318 312 301 292 6 43 58 37 39 13 316 338 344 343 345 347 1 27 49 151 187 125 121 173 263 71 29 92 11 21 36 344 63 8 109 83 357 205 155 208 167 185 234 147 139 141 265 81 266 132 281 68 291 3 252 254 314 274 263 263 274 326 43 148
23 30 31 37 39 37 33 17 5 2 353 352 354 354 351 345 342 345 337 336 337 333 332 321 335 349 338 359 105 340 66 68 41 303 280 340 343 343 343 350 5 49 62 60 129 95 103 80 57 69 79 63 320 26 43 335 71 321 66 129 157 186 115 322 186 246 224 167 146 143 233 54 8 164 87 152 360 293 259 224 206 228 233 245 251 247 208 187
24 38 34 29 28 30 27 17 2 358 356 352 355 352 347 344 345 344 343 339 333 335 332 320 359 26 42 79 68 65 61 64 268 309 314 345 340 340 340 348 14 58 100 141 91 60 69 68 64 45 66 29 13 13 34 334 76 79 86 229 131 143 71 262 232 150 150 204 102 147 97 216 242 49 90 128 209 253 213 242 210 230 235 224 213 218 187 193
30 42 40 27 18 18 22 13 2 355 354 354 353 349 350 351 351 350 344 346 333 331 331 358 12 43 84 71 58 66 79 94 309 318 337 338 337 335 339 346 37 68 67 45 79 18 48 6 57 29 27 57 349 72 307 354 343 92 344 17 86 214 129 255 178 195 168 107 109 103 188 83 43 309 215 160 212 237 224 208 195 217 235 226 170 149 189 201
31 44 43 30 13 10 17 12 360 354 353 352 352 352 352 358 354 354 353 348 335 327 350 33 115 204 93 45 42 74 87 186 359 297 348 334 331 336 335 3 31 42 59 57 25 65 39 81 70 70 89 86 54 78 19 31 26 91 120 34 29 70 102 301 200 153 115 107 159 178 102 66 73 328 66 236 241 240 249 223 234 255 264 162 164 192 194 201
21 41 42 29 16 8 12 11 4 357 351 350 348 352 359 355 359 2 356 348 337 346 51 50 11 330 294 38 42 31 46 327 310 320 340 336 334 336 338 29 37 49 55 77 104 100 98 59 111 165 53 100 202 103 310 63 32 73 81 291 157 51 335 314 143 61 74 51 151 77 67 302 182 233 8 262 249 251 252 232 261 265 172 187 204 205 213 215
16 34 36 25 17 9 10 7 8 358 352 346 347 350 356 353 360 3 358 351 352 21 31 64 50 63 97 84 106 71 349 272 297 316 341 342 332 346 24 23 1 83 123 64 21 148 94 243 119 176 177 112 219 93 347 86 9 62 124 117 72 65 324 283 60 35 46 83 15 46 324 295 269 231 260 254 262 242 258 220 221 148 170 206 216 213 206 215
15 26 30 24 16 15 9 4 5 359 349 345 342 348 353 352 359 4 355 349 16 33 26 354 142 78 51 72 43 70 278 293 322 339 342 343 345 10 32 28 30 62 53 347 38 106 150 196 146 124 116 81 91 28 283 62 151 128 100 97 99 289 297 354 121 346 313 84 325 79 320 317 332 38 287 306 259 311 173 212 183 172 215 223 223 225 222 216
9 24 27 26 21 20 12 360 1 358 346 339 336 348 349 351 358 360 354 340 359 29 42 40 89 76 44 69 89 92 264 353 358 340 348 353 20 30 352 338 349 74 103 43 50 20 134 126 139 141 38 155 112 19 68 145 125 105 131 96 32 353 93 254 61 5 332 359 53 108 270 267 316 92 238 251 327 5 180 218 211 205 232 233 233 232 234 231
347 27 24 27 29 30 22 8 356 352 345 336 340 355 352 353 4 355 350 4 11 21 40 42 56 95 86 66 59 97 316 288 313 349 355 11 25 21 351 354 53 95 92 99 45 13 104 141 88 64 159 158 76 133 62 134 76 157 299 70 317 1 83 1 100 307 2 359 183 144 319 297 170 223 238 271 343 338 203 220 226 233 240 247 252 254 250 234
331 29 27 27 42 44 31 13 356 348 344 340 351 8 353 3 10 12 6 356 8 24 31 58 59 72 89 47 281 255 324 331 3 356 11 5 337 58 51 34 52 56 70 115 125 350 124 156 105 78 48 86 144 44 161 85 32 114 34 122 23 1 17 351 319 4 72 287 5 339 350 281 267 243 264 311 34 46 241 242 239 242 249 256 257 254 260 257
319 11 41 35 50 50 37 17 355 346 345 345 3 6 0 19 22 20 15 43 348 347 27 42 66 64 79 153 274 252 292 24 16 25 359 337 50 3 31 23 43 59 46 92 111 100 70 69 89 112 106 100 124 263 79 350 25 97 272 59 84 19 267 300 32 301 95 321 13 46 237 289 272 281 271 309 189 168 223 237 240 244 252 255 255 256 256 261
314 333 56 55 51 51 37 19 360 348 351 0 11 8 8 29 33 41 19 7 345 334 340 46 51 73 56 246 277 297 209 67 38 353 333 13 2 2 2 350 31 32 55 81 108 43 79 221 68 47 60 325 89 75 23 39 6 37 65 313 318 82 277 294 356 147 127 353 16 80 304 246 277 282 306 318 162 185 233 241 244 246 248 252 256 257 258 260
317 316 58 54 57 51 38 25 14 31 44 42 33 18 358 6 33 52 43 37 339 356 326 58 356 96 104 47 267 15 40 40 341 339 319 47 22 73 281 283 304 19 34 29 41 117 35 68 63 141 108 27 50 81 75 35 345 353 66 241 312 37 267 352 56 354 11 99 7 139 248 325 300 259 289 340 113 249 250 262 254 248 250 253 253 254 262 279
324 317 53 72 66 57 45 32 27 33 46 44 43 55 51 15 302 38 43 35 9 329 78 131 125 82 75 247 304 35 319 291 288 358 346 36 48 321 336 26 10 332 349 21 28 50 4 58 272 44 35 92 123 86 57 16 338 337 24 113 205 136 329 312 311 51 23 75 232 6 206 242 248 281 286 285 172 214 244 253 256 251 246 248 258 259 260 261
329 299 94 87 74 63 44 29 16 25 358 329 346 342 61 36 45 33 357 6 341 71 85 95 118 52 24 17 64 315 3 291 353 305 273 305 62 21 64 44 317 324 25 9 357 47 333 59 26 143 14 16 30 35 98 242 201 236 322 2 321 315 216 254 5 277 104 17 208 323 260 268 270 278 281 280 215 208 232 235 246 258 258 259 255 256 257 259
325 290 103 87 74 62 50 32 25 1 332 307 305 249 301 295 27 69 42 339 29 355 70 343 12 111 192 262 296 308 306 244 302 19 335 6 332 85 56 85 63 31 338 57 328 54 344 66 43 43 45 359 10 64 156 186 141 209 163 170 156 231 257 215 247 283 176 205 263 220 238 272 284 286 285 298 284 197 242 266 278 264 262 260 251 255 254 251
308 301 59 71 70 62 57 41 18 5 351 21 9 19 13 11 9 343 352 37 69 123 175 262 169 358 345 18 346 283 250 357 114 346 323 335 345 347 34 46 7 57 61 61 315 43 65 73 56 96 276 242 262 111 106 138 124 102 87 93 133 198 286 285 294 282 23 301 242 233 254 268 277 273 275 277 332 245 258 258 252 254 252 251 253 249 252 249
47 330 27 59 54 66 60 50 29 7 55 98 76 61 207 168 78 329 360 65 203 125 53 89 138 161 99 279 308 4 59 326 106 4 7 238 80 28 315 20 18 42 3 264 163 302 67 65 16 216 259 240 290 159 97 62 40 108 102 76 359 168 275 202 115 356 292 176 297 34 302 269 260 272 269 304 77 249 229 240 251 251 242 248 247 257 252 252
62 39 14 58 39 41 68 63 45 66 69 83 69 113 147 196 208 188 124 34 7 193 80 281 112 40 313 194 311 133 78 59 9 356 313 25 330 70 315 83 73 91 331 336 1 21 34 100 200 278 67 87 43 53 32 97 95 34 124 164 357 295 250 286 10 338 288 105 267 6 337 288 280 268 275 238 224 240 221 213 230 225 246 244 244 248 261 277
128 236 340 48 20 14 41 94 78 68 38 30 60 85 106 236 203 235 98 122 57 295 44 27 12 357 349 280 255 115 61 36 287 337 348 2 3 57 18 61 39 36 14 21 112 63 37 318 271 41 149 43 20 34 69 61 69 88 53 28 260 260 24 321 296 13 2 158 281 350 326 289 287 279 257 254 209 252 246 237 248 222 233 233 232 229 243 256
204 41 307 16 8 359 34 93 91 44 27 122 103 95 187 92 95 88 61 94 133 334 33 230 135 152 10 19 298 71 92 265 70 324 351 48 77 212 72 106 88 47 5 339 112 117 168 271 167 83 70 198 125 9 51 43 360 357 118 123 272 346 311 194 272 306 267 331 120 322 291 294 317 327 299 22 266 280 291 297 262 257 241 256 285 279 226 241
185 271 337 335 8 328 337 58 39 348 179 67 40 248 159 88 91 120 94 26 19 22 154 57 102 297 282 215 8 41 255 101 98 242 300 47 330 35 70 148 94 44 163 140 77 73 26 311 84 68 36 49 62 20 39 90 321 326 232 116 283 143 274 322 328 5 14 336 30 48 346 315 302 283 245 276 338 306 287 281 260 251 247 234 246 248 248 245
194 353 330 351 0 348 272 55 298 148 72 95 200 183 132 123 101 92 93 72 330 265 349 295 181 325 159 331 6 142 124 42 264 263 26 302 204 128 113 21 56 159 203 104 101 118 151 17 121 170 98 60 66 95 281 101 138 57 239 192 169 150 105 45 0 36 350 10 345 10 80 276 322 307 267 305 325 284 297 271 263 268 255 232 236 240 240 236
56 310 359 345 353 7 84 225 185 141 50 271 230 136 173 90 215 89 54 357 19 227 149 247 86 261 92 296 349 53 73 252 326 24 29 331 43 321 90 308 36 36 136 183 51 31 54 343 41 32 57 56 27 25 18 115 91 264 4 131 110 49 40 20 80 105 232 264 292 50 117 227 310 290 274 296 310 286 300 278 264 256 249 241 237 238 236 235
49 341 12 41 25 47 188 136 111 109 182 259 33 126 96 102 83 43 77 81 252 11 100 309 136 346 82 323 45 107 222 319 65 275 120 295 135 349 80 183 129 137 289 62 291 274 88 343 71 49 68 70 297 226 21 99 198 239 267 201 102 112 141 102 71 189 245 7 294 339 346 281 258 265 314 354 287 282 265 257 257 252 246 242 244 241 238 233
89 334 109 89 79 82 90 125 130 151 297 323 140 88 89 68 85 102 118 122 238 84 287 67 305 36 338 327 33 8 323 6 128 300 321 298 44 194 69 211 126 129 69 46 187 154 342 97 217 120 103 221 241 310 165 95 7 268 152 96 93 76 76 80 90 14 326 36 282 305 359 210 285 276 333 339 281 268 251 243 241 238 236 232 234 247 244 239
123 104 115 139 60 61 20 50 49 256 354 9 114 100 48 57 33 39 31 247 78 208 23 267 43 236 28 72 341 1 67 335 111 309 22 100 336 38 40 136 118 77 44 20 71 155 251 303 190 78 128 151 140 3 136 315 250 23 153 177 8 40 29 32 67 85 50 351 260 259 307 125 297 273 229 150 220 206 236 284 273 273 263 255 244 239 232 213
94 57 214 349 156 201 97 24 294 20 350 231 182 50 72 38 117 105 167 229 48 265 333 27 258 10 67 113 130 340 75 338 340 5 313 4 9 42 64 52 76 51 58 27 45 335 16 342 40 334 43 99 108 43 343 218 285 174 346 74 11 348 5 45 341 29 90 281 259 262 284 322 194 293 283 238 271 226 196 213 227 230 230 225 221 226 227 214
91 70 53 68 105 14 129 213 171 118 159 140 63 62 82 165 9 149 212 335 185 266 126 252 12 115 61 342 74 345 60 351 358 40 51 3 38 35 3 146 198 51 346 350 137 344 57 58 257 357 295 85 72 50 326 325 347 61 35 31 60 284 22 293 15 313 198 199 238 328 204 359 231 232 253 282 253 257 218 222 219 214 220 222 228 220 210 208
104 98 74 47 22 61 26 109 120 179 105 56 72 47 70 97 201 261 50 334 224 46 246 70 194 62 219 67 30 324 277 107 328 74 155 315 92 2 206 193 201 177 247 255 334 24 289 285 9 301 70 45 112 112 313 12 335 53 82 112 74 14 35 277 276 229 296 298 259 336 276 262 264 281 243 245 258 239 240 229 237 229 233 229 222 216 207 210
102 95 69 18 74 66 120 119 193 135 71 43 73 55 50 102 242 193 140 223 198 345 33 76 69 56 35 164 240 295 77 264 43 324 67 297 40 234 315 300 139 34 78 174 40 166 354 344 305 69 79 30 24 192 195 226 137 167 167 108 182 133 154 286 251 294 264 241 278 285 53 233 45 246 215 224 249 300 274 262 255 259 252 254 276 264 251 236
99 82 104 61 51 35 47 246 258 127 81 73 54 88 146 229 225 181 235 245 264 318 84 315 68 69 3 23 306 288 181 6 50 32 16 96 243 155 188 223 269 105 144 107 274 70 192 210 270 297 252 34 229 277 116 80 72 219 179 92 72 239 132 219 204 168 290 343 337 239 212 192 204 264 281 272 281 280 272 271 268 264 255 266 273 238 223 219
75 22 80 34 59 316 42 303 136 69 94 75 89 154 194 188 359 173 223 155 119 138 164 49 82 55 317 318 320 70 298 112 324 77 338 89 204 169 208 207 184 189 139 164 199 161 14 287 20 314 58 112 262 309 304 13 203 237 93 192 206 144 98 88 55 59 87 48 255 191 312 284 296 307 298 343 337 281 308 281 258 256 270 288 246 239 231 228
79 359 63 341 23 326 27 85 65 82 70 99 102 233 209 273 203 159 154 134 196 137 100 119 252 142 207 218 226 320 256 55 291 108 259 243 306 193 215 266 167 170 197 136 263 184 147 252 320 67 324 358 260 187 289 356 245 58 60 230 167 149 111 129 270 338 63 128 267 56 253 308 35 296 322 341 340 293 297 261 260 275 278 254 243 236 232 227
97 71 105 44 276 341 31 326 89 53 83 104 186 227 209 112 223 127 142 97 82 39 111 119 261 84 246 133 251 184 277 147 272 79 201 185 246 171 112 159 31 119 359 255 137 287 115 329 311 262 175 267 26 358 328 322 60 107 171 212 129 238 27 340 93 323 332 292 289 304 289 259 188 258 328 304 317 295 289 295 301 264 247 240 243 244 242 247
63 89 125 271 351 48 339 57 70 75 65 129 221 231 241 236 271 144 210 163 96 121 141 223 136 291 133 174 204 343 191 184 221 174 120 244 123 200 175 152 39 233 290 261 81 203 36 168 292 283 151 331 330 104 250 272 1 59 314 21 295 114 186 100 206 179 118 277 28 292 24 281 194 222 211 263 258 262 280 304 246 241 235 234 235 239 233 227
116 78 290 279 308 26 143 74 63 52 77 177 223 220 227 217 236 259 6 195 229 125 221 144 227 122 181 204 151 162 246 133 162 228 123 267 188 279 219 5 152 165 146 349 112 92 97 101 256 285 273 341 254 193 213 158 153 6 75 327 355 327 222 86 3 152 194 191 179 244 320 283 250 216 188 247 259 249 237 256 261 258 255 249 248 243 238 232
16 101 258 280 328 281 61 48 84 155 148 297 99 175 85 198 165 338 17 22 87 331 172 163 159 162 188 117 265 185 140 143 154 160 195 265 176 224 18 144 168 138 176 68 79 251 81 89 197 311 21 227 226 299 245 179 159 172 160 194 175 122 124 129 270 22 69 107 240 126 267 269 277 168 213 240 259 261 245 236 268 267 256 248 242 237 227 233
121 188 258 308 322 93 92 110 20 315 106 155 213 173 190 142 77 17 31 353 57 133 32 108 46 122 134 157 169 166 135 170 192 64 255 180 235 85 320 25 97 178 122 170 189 239 146 148 91 240 200 218 260 307 275 331 125 162 164 229 155 132 105 102 216 272 28 242 103 171 77 270 245 210 212 233 259 247 251 224 263 264 267 264 255 248 239 228
112 186 251 331 331 106 81 55 318 67 137 241 315 34 354 25 114 222 137 304 322 105 14 29 197 129 239 139 185 137 176 180 164 205 192 193 245 236 286 14 201 70 91 9 63 259 104 96 72 286 309 309 325 306 14 35 145 10 309 54 115 183 184 176 169 172 137 96 192 334 234 260 293 226 223 237 260 276 275 239 244 268 269 267 263 257 242 242
127 140 110 350 51 86 124 183 192 226 275 307 79 150 267 170 136 124 199 213 160 175 179 184 345 293 144 101 122 180 204 160 222 149 284 184 159 63 237 302 266 153 94 203 132 215 134 278 123 350 354 338 341 350 356 328 73 202 201 217 198 91 67 152 108 128 310 211 178 139 242 275 269 312 289 284 294 296 277 259 209 254 272 266 263 261 252 248
107 4 53 307 6 75 185 188 141 149 188 151 135 122 89 14 327 195 155 185 136 173 113 259 204 136 71 95 86 94 19 116 106 269 94 189 207 61 356 125 345 121 12 315 245 329 97 184 118 155 205 283 298 302 276 244 229 220 204 18 241 156 141 123 223 125 195 276 139 183 249 258 269 304 301 285 289 300 277 251 232 219 258 276 278 262 257 248
173 147 299 357 9 44 57 66 114 137 135 142 103 245 128 133 14 332 129 83 169 99 27 115 355 90 98 99 79 44 180 350 54 240 161 248 266 351 308 356 95 64 276 211 350 37 165 63 154 164 159 204 217 205 254 117 64 202 241 180 207 209 221 107 101 117 207 205 186 232 231 278 292 282 277 274 274 267 279 288 280 278 263 257 260 269 260 248
147 130 160 173 353 26 127 16 119 111 181 165 170 167 193 171 184 3 214 142 250 141 68 77 180 142 233 112 196 127 16 97 8 106 214 166 285 264 301 91 2 296 321 209 290 88 65 283 247 182 230 232 157 187 204 190 231 235 178 247 195 175 188 162 171 217 158 101 272 237 236 256 266 277 281 285 278 253 267 275 285 280 269 265 266 266 267 260
168 247 122 199 134 206 147 258 168 105 71 156 216 121 182 143 170 161 351 343 56 270 138 287 136 237 177 177 147 150 155 118 67 215 63 355 77 346 44 338 96 313 352 320 340 139 143 179 270 133 268 271 260 239 163 183 215 222 209 198 188 198 153 188 228 213 146 194 238 265 159 222 259 266 273 278 279 283 280 275 260 265 282 286 286 280 272 265
112 143 156 335 198 255 195 171 141 147 148 174 103 149 176 179 196 199 159 114 15 237 185 216 234 214 193 192 144 154 169 123 274 220 176 157 176 126 76 348 266 12 82 27 24 191 112 249 199 145 270 301 320 5 310 199 274 285 242 231 220 162 199 206 226 210 198 231 244 264 267 259 267 274 275 275 284 300 288 285 281 282 273 276 278 270 267 268
217 141 238 5 78 99 87 120 140 131 164 207 162 232 166 184 193 201 330 140 168 255 92 214 252 227 181 175 145 150 205 174 174 187 217 126 89 196 215 194 152 354 25 164 139 297 146 273 127 124 19 297 319 353 71 149 137 275 263 250 215 204 221 227 250 250 234 269 267 263 276 282 273 261 266 279 293 293 292 280 272 270 277 271 268 269 268 265
184 146 150 130 111 243 74 104 134 159 154 210 193 233 131 195 201 175 205 180 154 171 175 207 173 100 65 168 220 246 221 173 131 28 181 156 179 209 155 258 132 143 134 124 158 15 56 247 45 76 346 299 330 26 314 31 200 233 268 260 228 201 229 217 210 216 178 231 246 271 273 261 265 272 293 269 281 293 278 280 282 281 268 265 265 269 268 266
73 341 79 117 119 221 144 91 76 94 209 209 165 194 185 209 179 156 203 190 182 179 188 176 165 117 60 151 227 224 199 180 155 249 156 134 103 84 66 136 139 149 169 150 223 136 174 131 151 137 217 259 269 62 317 319 324 297 265 241 226 212 214 272 263 183 211 212 241 241 243 243 258 309 323 297 291 283 285 278 288 289 267 251 263 266 267 266